Location: Bagnara
(41.0500°N, 14.7833°E)
Time: 14:35:14
(UTC+00:00)

ALOS - Pass Details

Date: 20 June 2021
Orbit: 683 x 684 km, 97.9° (Epoch: 30 July)

Event Time Altitude Azimuth Distance (km) Brightness Sun altitude
Rises 02:38:19 0° 20° (NNE) 3,057 6.8 -8.4°
Reaches altitude 10° 02:40:41 10° 27° (NNE) 2,136 6.1 -8.0°
Maximum altitude 02:45:07 41° 98° (E) 986 3.5 -7.4°
Drops below altitude 10° 02:49:29 10° 169° (S) 2,120 4.5 -6.8°
Sets 02:51:50 0° 176° (S) 3,031 5.3 -6.4°
